GW0483 Weather Reports


Display with metric or nautical units.
time (UTC)temp
F
wind
direction
speed
MPH
gust
MPH
rain 1hr
in
rain 24hr
in
rain mn
in
humidity
%
barometer
mb
20260903145650 84 188 5.0 6.0 0.00 0.00 0.00 78 1012.8
20260903145145 84 158 3.0 5.0 0.00 0.00 0.00 80 1012.8
20260903144643 82 235 3.0 6.0 0.00 0.00 0.00 81 1012.9
20260903144140 83 215 5.0 7.0 0.00 0.00 0.00 81 1013.1
20260903143636 83 226 4.0 7.0 0.00 0.00 0.00 81 1013.0
20260903143131 82 136 3.0 3.0 0.00 0.00 0.00 83 1013.0
20260903142627 82 159 3.0 3.0 0.00 0.00 0.00 83 1013.1
20260903142123 82 183 3.0 5.0 0.00 0.00 0.00 82 1013.1
20260903141618 82 111 4.0 5.0 0.00 0.00 0.00 84 1012.9
20260903141108 82 202 4.0 6.0 0.00 0.00 0.00 84 1012.8
20260903140604 81 153 1.0 2.0 0.00 0.00 0.00 86 1013.2
20260903140059 81 102 2.0 2.0 0.00 0.00 0.00 87 1013.2
20260903135554 80 237 5.0 9.0 0.00 0.00 0.00 87 1013.2
20260903135049 81 268 3.0 6.0 0.00 0.00 0.00 87 1013.2
20260903134548 81 200 4.0 6.0 0.00 0.00 0.00 87 1013.2
20260903134044 80 11 4.0 5.0 0.00 0.00 0.00 88 1013.3
20260903133541 80 66 1.0 2.0 0.00 0.00 0.00 89 1013.0
20260903133037 79 93 3.0 3.0 0.00 0.00 0.00 89 1013.3
20260903132532 79 194 1.0 2.0 0.00 0.00 0.00 90 1013.3
20260903132027 79 162 2.0 2.0 0.00 0.00 0.00 90 1013.4
20260903131522 79 132 2.0 3.0 0.00 0.00 0.00 91 1013.2
20260903131020 79 166 3.0 3.0 0.00 0.00 0.00 91 1013.3
20260903130515 78 64 1.0 2.0 0.00 0.00 0.00 91 1013.1
20260903130015 78 205 3.0 5.0 0.00 0.00 0.00 91 1013.2
20260903125514 78 98 3.0 3.0 0.00 0.00 0.00 92 1013.1
20260903125009 78 58 1.0 1.0 0.00 0.00 0.00 92 1012.6
20260903124504 78 145 3.0 3.0 0.00 0.00 0.00 92 1013.1
20260903124003 78 188 2.0 2.0 0.00 0.00 0.00 92 1012.9
20260903123503 78 113 1.0 1.0 0.00 0.00 0.00 92 1013.1
20260903123001 78 151 3.0 3.0 0.00 0.00 0.00 92 1012.8
20260903122456 78 96 2.0 2.0 0.00 0.00 0.00 92 1012.9
20260903121955 78 105 2.0 3.0 0.00 0.00 0.00 92 1012.6
20260903121450 78 113 2.0 2.0 0.00 0.00 0.00 92 1012.5
20260903120947 78 31 2.0 3.0 0.00 0.00 0.00 91 1012.8
20260903120445 78 92 1.0 1.0 0.00 0.00 0.00 91 1012.8
20260903115944 78 123 1.0 2.0 0.00 0.00 0.00 91 1013.0
20260903115444 78 200 3.0 5.0 0.00 0.00 0.00 91 1012.8
20260903114939 78 100 2.0 2.0 0.00 0.00 0.00 92 1012.6
20260903114434 78 229 2.0 3.0 0.00 0.00 0.00 92 1012.8
20260903113929 78 139 5.0 7.0 0.00 0.00 0.00 92 1012.6
20260903113426 78 329 3.0 6.0 0.00 0.00 0.00 92 1012.5
20260903112921 78 170 2.0 2.0 0.00 0.00 0.00 92 1012.8
20260903112416 78 129 1.0 2.0 0.00 0.00 0.00 92 1012.5
20260903111915 78 201 1.0 2.0 0.00 0.00 0.00 92 1012.2
20260903111415 78 85 1.0 2.0 0.00 0.00 0.00 92 1012.3
20260903110912 78 146 1.0 1.0 0.00 0.00 0.00 92 1012.3
20260903110407 78 200 3.0 5.0 0.00 0.00 0.00 92 1012.2
20260903105902 78 177 2.0 3.0 0.00 0.00 0.00 93 1012.1
20260903105357 78 49 5.0 6.0 0.00 0.00 0.00 93 1012.3
20260903104856 78 244 4.0 5.0 0.00 0.00 0.00 93 1012.1
20260903104350 78 175 3.0 7.0 0.00 0.00 0.00 94 1012.0
20260903103848 78 134 3.0 6.0 0.00 0.00 0.00 94 1011.8
20260903103344 78 158 3.0 5.0 0.00 0.00 0.00 94 1012.1
20260903102839 78 94 3.0 5.0 0.00 0.00 0.00 93 1012.2
20260903102338 78 170 3.0 5.0 0.00 0.00 0.00 93 1012.1
20260903101833 78 123 2.0 2.0 0.00 0.00 0.00 93 1012.3
20260903101328 78 188 2.0 3.0 0.00 0.00 0.00 93 1012.1
20260903100824 78 100 2.0 2.0 0.00 0.00 0.00 93 1012.2
20260903100323 78 134 3.0 3.0 0.00 0.00 0.00 93 1012.3
20260903095821 78 142 2.0 2.0 0.00 0.00 0.00 93 1012.2
20260903095315 78 144 3.0 5.0 0.00 0.00 0.00 93 1012.3
20260903094810 78 146 4.0 6.0 0.00 0.00 0.00 93 1012.3
20260903094305 78 213 3.0 3.0 0.00 0.00 0.00 93 1012.3
20260903093801 78 97 2.0 2.0 0.00 0.00 0.00 93 1012.2
20260903093256 78 227 3.0 5.0 0.00 0.00 0.00 93 1012.3
20260903092755 78 111 2.0 2.0 0.00 0.00 0.00 93 1012.2
20260903092245 78 148 3.0 5.0 0.00 0.00 0.00 93 1012.1
20260903091744 78 108 3.0 3.0 0.00 0.00 0.00 93 1012.2
20260903091238 78 127 2.0 3.0 0.00 0.00 0.00 93 1012.3
20260903090734 78 123 2.0 2.0 0.00 0.00 0.00 93 1012.3
20260903090232 78 116 1.0 1.0 0.00 0.00 0.00 94 1012.3
20260903085726 78 177 3.0 3.0 0.00 0.00 0.00 94 1012.3
20260903085221 78 154 2.0 2.0 0.00 0.00 0.00 94 1012.3
20260903084719 78 143 4.0 5.0 0.00 0.00 0.00 94 1012.1
20260903084214 78 115 2.0 2.0 0.00 0.00 0.00 93 1012.3
20260903083709 78 208 1.0 3.0 0.00 0.00 0.00 93 1012.2
20260903083203 78 125 4.0 5.0 0.00 0.00 0.00 93 1012.3
20260903082657 78 114 2.0 2.0 0.00 0.00 0.00 93 1012.4
20260903082154 78 106 2.0 2.0 0.00 0.00 0.00 93 1012.2
20260903081648 78 151 3.0 3.0 0.00 0.00 0.00 93 1012.4
20260903081144 78 105 2.0 3.0 0.00 0.00 0.00 92 1012.4
20260903080640 78 112 2.0 2.0 0.00 0.00 0.00 92 1012.4
20260903080138 78 76 1.0 2.0 0.00 0.00 0.00 92 1012.5
20260903075636 78 157 2.0 2.0 0.00 0.00 0.00 92 1012.6
20260903075136 78 105 2.0 2.0 0.00 0.00 0.00 92 1012.4
20260903074636 78 144 1.0 2.0 0.00 0.00 0.00 91 1012.6
20260903074131 78 89 1.0 2.0 0.00 0.00 0.00 91 1012.6
20260903073626 78 72 1.0 1.0 0.00 0.00 0.00 91 1012.5
20260903073122 78 80 1.0 1.0 0.00 0.00 0.00 90 1012.5
20260903072617 78 105 1.0 2.0 0.00 0.00 0.00 90 1012.5
20260903072114 78 103 1.0 1.0 0.00 0.00 0.00 90 1012.6
20260903071610 79 108 1.0 2.0 0.00 0.00 0.00 89 1012.9
20260903071111 79 104 1.0 1.0 0.00 0.00 0.00 89 1012.3
20260903070611 79 82 2.0 2.0 0.00 0.00 0.00 89 1012.6
20260903070107 79 107 2.0 2.0 0.00 0.00 0.00 89 1012.5
20260903065606 79 93 1.0 2.0 0.00 0.00 0.00 88 1012.3
20260903065100 79 159 2.0 2.0 0.00 0.00 0.00 88 1012.6
20260903064555 79 156 4.0 5.0 0.00 0.00 0.00 88 1012.8
20260903064050 79 150 3.0 5.0 0.00 0.00 0.00 87 1012.6
20260903063545 80 140 3.0 3.0 0.00 0.00 0.00 87 1012.8
20260903063041 80 114 2.0 3.0 0.00 0.00 0.00 87 1012.9
20260903062536 80 126 3.0 3.0 0.00 0.00 0.00 87 1012.6
20260903062032 80 112 3.0 3.0 0.00 0.00 0.00 86 1012.6
20260903061527 80 156 3.0 3.0 0.00 0.00 0.00 86 1012.8
20260903061027 80 146 5.0 9.0 0.00 0.00 0.00 86 1012.5
20260903060526 80 150 2.0 3.0 0.00 0.00 0.00 85 1012.8
20260903060021 80 135 5.0 6.0 0.00 0.00 0.00 84 1012.8
20260903055519 81 211 4.0 5.0 0.00 0.00 0.00 84 1012.8
20260903055018 81 145 3.0 3.0 0.00 0.00 0.00 83 1012.8
20260903054513 81 137 3.0 3.0 0.00 0.00 0.00 83 1012.9
20260903054009 81 120 3.0 5.0 0.00 0.00 0.00 82 1012.6
20260903053509 81 128 4.0 5.0 0.00 0.00 0.00 82 1013.0
20260903053005 82 180 3.0 3.0 0.00 0.00 0.00 80 1012.9
20260903052501 82 137 3.0 3.0 0.00 0.00 0.00 78 1012.9
20260903051956 82 74 3.0 5.0 0.00 0.00 0.00 78 1012.8
20260903051451 82 154 3.0 5.0 0.00 0.00 0.00 77 1012.6
20260903050947 82 106 2.0 2.0 0.00 0.00 0.00 77 1012.6
20260903050445 82 123 3.0 5.0 0.00 0.00 0.00 77 1012.4
20260903045940 83 150 5.0 8.0 0.00 0.00 0.00 76 1012.6
20260903045436 83 153 4.0 5.0 0.00 0.00 0.00 75 1012.3
20260903044932 83 184 4.0 6.0 0.00 0.00 0.00 74 1012.6
20260903044433 83 171 4.0 5.0 0.00 0.00 0.00 74 1012.4
20260903043929 84 214 5.0 6.0 0.00 0.00 0.00 74 1012.4
20260903043425 84 110 3.0 3.0 0.00 0.00 0.00 73 1012.0
20260903042923 84 111 3.0 5.0 0.00 0.00 0.00 72 1012.2
20260903042419 84 142 3.0 3.0 0.00 0.00 0.00 72 1012.2
20260903041914 85 130 3.0 3.0 0.00 0.00 0.00 71 1012.1
20260903041410 85 129 3.0 3.0 0.00 0.00 0.00 70 1012.2
20260903040906 85 162 3.0 3.0 0.00 0.00 0.00 69 1012.0
20260903040405 86 92 2.0 2.0 0.00 0.00 0.00 69 1012.3
20260903035901 86 151 4.0 5.0 0.00 0.00 0.00 68 1012.1
20260903035356 86 139 3.0 3.0 0.00 0.00 0.00 68 1012.0
20260903034851 86 125 2.0 2.0 0.00 0.00 0.00 67 1012.0
20260903034347 86 112 3.0 3.0 0.00 0.00 0.00 66 1012.1
20260903033841 87 170 2.0 2.0 0.00 0.00 0.00 65 1011.8
20260903033337 87 124 2.0 2.0 0.00 0.00 0.00 63 1012.1
20260903032836 87 92 1.0 2.0 0.00 0.00 0.00 61 1011.9
20260903032333 87 90 4.0 6.0 0.00 0.00 0.00 60 1011.9
20260903031828 87 97 1.0 1.0 0.00 0.00 0.00 58 1011.8
20260903031327 87 138 3.0 3.0 0.00 0.00 0.00 56 1011.7
20260903030823 85 113 3.0 3.0 0.00 0.00 0.00 58 1011.7
20260903030318 86 75 0.0 0.0 0.00 0.00 0.00 57 1011.3
20260903025814 86 72 0.0 0.0 0.00 0.00 0.00 57 1011.0
20260903025309 86 68 0.0 0.0 0.00 0.00 0.00 58 1011.1
20260903024804 86 133 1.0 1.0 0.00 0.00 0.00 56 1011.1
20260903024303 87 75 1.0 1.0 0.00 0.00 0.00 57 1011.1
20260903023759 87 66 0.0 0.0 0.00 0.00 0.00 54 1010.9
20260903023255 88 63 0.0 0.0 0.00 0.00 0.00 54 1010.8
20260903022755 88 63 0.0 0.0 0.00 0.00 0.00 53 1010.6
20260903022253 88 64 0.0 0.0 0.00 0.00 0.00 53 1010.6
20260903021753 88 65 0.0 0.0 0.00 0.00 0.00 53 1010.7
20260903021249 88 64 0.0 0.0 0.00 0.00 0.00 53 1010.7
20260903020748 88 69 0.0 0.0 0.00 0.00 0.00 53 1010.4
20260903020243 88 64 0.0 0.0 0.00 0.00 0.00 54 1010.4
20260903015738 88 63 0.0 0.0 0.00 0.00 0.00 54 1010.3
20260903015234 88 62 0.0 0.0 0.00 0.00 0.00 54 1010.2
20260903014729 88 61 0.0 0.0 0.00 0.00 0.00 54 1010.3
20260903014228 89 62 0.0 0.0 0.00 0.00 0.00 54 1010.2
20260903013724 89 61 0.0 0.0 0.00 0.00 0.00 53 1010.2
20260903013223 89 62 0.0 0.0 0.00 0.00 0.00 53 1010.1
20260903012721 90 62 0.0 0.0 0.00 0.00 0.00 51 1010.0
20260903012216 90 65 0.0 0.0 0.00 0.00 0.00 51 1010.3
20260903011716 91 71 0.0 0.0 0.00 0.00 0.00 50 1010.1
20260903011210 91 62 0.0 0.0 0.00 0.00 0.00 50 1009.8
20260903010706 91 66 0.0 0.0 0.00 0.00 0.00 49 1009.8
20260903010205 92 66 0.0 0.0 0.00 0.00 0.00 48 1010.3
20260903005704 93 66 0.0 0.0 0.00 0.00 0.00 47 1010.0
20260903005200 93 66 0.0 0.0 0.00 0.00 0.00 46 1010.1
20260903004655 93 71 0.0 0.0 0.00 0.00 0.00 46 1010.1
20260903004150 94 82 1.0 1.0 0.00 0.00 0.00 45 1010.1
20260903003646 94 110 1.0 1.0 0.00 0.00 0.00 44 1010.0
20260903003141 95 62 1.0 1.0 0.00 0.00 0.00 43 1010.0
20260903002636 95 84 1.0 1.0 0.00 0.00 0.00 43 1010.0
20260903002130 95 68 0.0 1.0 0.00 0.00 0.00 42 1010.2
20260903001625 95 84 1.0 1.0 0.00 0.00 0.00 41 1010.0
20260903001119 96 100 1.0 2.0 0.00 0.00 0.00 41 1010.0
20260903000615 96 97 2.0 2.0 0.00 0.00 0.00 40 1010.1
20260903000114 97 100 3.0 3.0 0.00 0.00 0.00 40 1010.1
20260902235613 97 118 2.0 2.0 0.00 0.00 0.00 39 1010.2
20260902235108 98 177 3.0 3.0 0.00 0.00 0.00 38 1010.1
20260902234602 98 80 1.0 1.0 0.00 0.00 0.00 38 1010.0
20260902234101 98 123 2.0 2.0 0.00 0.00 0.00 38 1010.3
20260902233556 99 187 1.0 1.0 0.00 0.00 0.00 38 1010.1
20260902233050 100 93 2.0 2.0 0.00 0.00 0.00 38 1010.2
20260902232549 99 95 1.0 2.0 0.00 0.00 0.00 37 1010.2
20260902232044 99 68 1.0 1.0 0.00 0.00 0.00 37 1010.3
20260902231538 101 133 3.0 3.0 0.00 0.00 0.00 37 1010.4
20260902231032 100 119 1.0 1.0 0.00 0.00 0.00 38 1010.1
20260902230527 100 79 3.0 3.0 0.00 0.00 0.00 37 1010.1
20260902230026 100 194 2.0 2.0 0.00 0.00 0.00 37 1010.3
20260902225522 100 9 0.0 1.0 0.00 0.00 0.00 38 1010.3
20260902225016 99 77 4.0 5.0 0.00 0.00 0.00 38 1010.3
20260902224515 100 139 6.0 8.0 0.00 0.00 0.00 38 1010.2
20260902224011 101 357 2.0 3.0 0.00 0.00 0.00 38 1010.1
20260902223507 100 48 1.0 1.0 0.00 0.00 0.00 37 1010.3
20260902223006 100 152 3.0 3.0 0.00 0.00 0.00 37 1010.2
20260902222504 100 150 3.0 5.0 0.00 0.00 0.00 37 1010.3
20260902221958 102 208 1.0 2.0 0.00 0.00 0.00 37 1010.3
20260902221457 101 38 1.0 1.0 0.00 0.00 0.00 36 1010.4
20260902220948 101 133 4.0 5.0 0.00 0.00 0.00 37 1010.5
20260902220447 102 218 3.0 6.0 0.00 0.00 0.00 36 1010.4
20260902215942 102 103 1.0 2.0 0.00 0.00 0.00 36 1010.4
20260902215437 102 41 1.0 1.0 0.00 0.00 0.00 37 1010.6
20260902214928 101 46 1.0 1.0 0.00 0.00 0.00 37 1010.5
20260902214426 100 111 2.0 2.0 0.00 0.00 0.00 39 1010.6
20260902213921 100 149 1.0 2.0 0.00 0.00 0.00 39 1010.6
20260902213418 103 135 3.0 6.0 0.00 0.00 0.00 37 1010.5
20260902212916 102 142 4.0 6.0 0.00 0.00 0.00 38 1010.8
20260902212412 101 283 2.0 2.0 0.00 0.00 0.00 38 1010.7
20260902211908 100 116 2.0 2.0 0.00 0.00 0.00 38 1010.6
20260902211404 101 210 3.0 6.0 0.00 0.00 0.00 38 1010.8
20260902210859 101 3 5.0 9.0 0.00 0.00 0.00 40 1010.6
20260902210358 100 118 3.0 5.0 0.00 0.00 0.00 40 1010.9
20260902205857 100 155 5.0 8.0 0.00 0.00 0.00 41 1011.1
20260902205351 100 263 6.0 7.0 0.00 0.00 0.00 39 1010.9
20260902204847 100 209 4.0 5.0 0.00 0.00 0.00 41 1011.0
20260902204342 99 138 4.0 7.0 0.00 0.00 0.00 43 1010.9
20260902203837 99 147 7.0 9.0 0.00 0.00 0.00 43 1011.1
20260902203332 100 146 7.0 8.0 0.00 0.00 0.00 42 1011.4
20260902202831 101 266 8.0 10.0 0.00 0.00 0.00 40 1011.4
20260902202322 100 142 8.0 10.0 0.00 0.00 0.00 43 1011.4
20260902201819 100 126 5.0 6.0 0.00 0.00 0.00 42 1011.4
20260902201319 100 120 7.0 8.0 0.00 0.00 0.00 42 1011.6
20260902200814 100 160 5.0 9.0 0.00 0.00 0.00 42 1011.9
20260902200309 100 182 6.0 10.0 0.00 0.00 0.00 42 1011.9
20260902195804 100 295 3.0 6.0 0.00 0.00 0.00 42 1012.0
20260902195306 100 26 3.0 5.0 0.00 0.00 0.00 42 1011.9
20260902194758 100 272 5.0 7.0 0.00 0.00 0.00 43 1012.0
20260902194253 100 86 2.0 2.0 0.00 0.00 0.00 42 1012.2
20260902193749 97 173 5.0 6.0 0.00 0.00 0.00 45 1012.2
20260902193244 97 119 2.0 2.0 0.00 0.00 0.00 47 1012.3
20260902192743 100 145 4.0 7.0 0.00 0.00 0.00 43 1012.8
20260902192242 101 72 7.0 9.0 0.00 0.00 0.00 43 1012.6
20260902191736 99 110 3.0 5.0 0.00 0.00 0.00 43 1012.8
20260902191237 98 104 5.0 6.0 0.00 0.00 0.00 43 1012.8
20260902190732 97 40 0.0 0.0 0.00 0.00 0.00 45 1012.9
20260902190231 99 22 3.0 5.0 0.00 0.00 0.00 43 1013.0
20260902185727 99 143 4.0 6.0 0.00 0.00 0.00 45 1013.0
20260902185223 98 125 4.0 6.0 0.00 0.00 0.00 45 1013.1
20260902184718 98 97 1.0 2.0 0.00 0.00 0.00 45 1013.2
20260902184214 99 288 4.0 6.0 0.00 0.00 0.00 44 1013.3
20260902183710 98 148 3.0 5.0 0.00 0.00 0.00 45 1013.2
20260902183206 99 51 2.0 3.0 0.00 0.00 0.00 44 1013.3
20260902182702 97 24 2.0 2.0 0.00 0.00 0.00 46 1013.5
20260902182158 97 33 2.0 2.0 0.00 0.00 0.00 47 1013.7
20260902181654 97 346 5.0 8.0 0.00 0.00 0.00 48 1013.5
20260902181153 96 114 2.0 3.0 0.00 0.00 0.00 47 1013.8
20260902180648 95 287 5.0 6.0 0.00 0.00 0.00 49 1013.7
20260902180144 95 72 1.0 2.0 0.00 0.00 0.00 48 1013.8
20260902175643 96 276 3.0 3.0 0.00 0.00 0.00 49 1014.1
20260902175140 96 272 2.0 3.0 0.00 0.00 0.00 49 1014.2
20260902174635 96 29 1.0 2.0 0.00 0.00 0.00 48 1014.0
20260902174131 95 90 3.0 5.0 0.00 0.00 0.00 50 1014.3
20260902173626 95 347 2.0 2.0 0.00 0.00 0.00 50 1014.2
20260902173121 95 132 3.0 3.0 0.00 0.00 0.00 50 1014.3
20260902172615 96 6 2.0 2.0 0.00 0.00 0.00 50 1014.3
20260902172109 96 130 3.0 3.0 0.00 0.00 0.00 51 1014.5
20260902171605 94 309 1.0 1.0 0.00 0.00 0.00 53 1014.7
20260902171101 94 228 3.0 3.0 0.00 0.00 0.00 54 1014.5
20260902170556 94 37 1.0 1.0 0.00 0.00 0.00 53 1014.7
20260902170051 94 105 3.0 5.0 0.00 0.00 0.00 54 1014.6
20260902165551 93 46 1.0 1.0 0.00 0.00 0.00 56 1014.6
20260902165046 93 203 3.0 6.0 0.00 0.00 0.00 56 1014.9
20260902164541 93 234 1.0 2.0 0.00 0.00 0.00 54 1014.8
20260902164039 93 127 2.0 2.0 0.00 0.00 0.00 58 1014.8
20260902163536 93 45 1.0 2.0 0.00 0.00 0.00 59 1014.7
20260902163033 92 237 3.0 5.0 0.00 0.00 0.00 59 1014.6
20260902162527 91 135 3.0 3.0 0.00 0.00 0.00 62 1015.0
20260902162023 91 97 2.0 3.0 0.00 0.00 0.00 62 1014.9
20260902161518 90 292 2.0 3.0 0.00 0.00 0.00 63 1014.9
20260902161014 90 105 2.0 2.0 0.00 0.00 0.00 64 1014.7
20260902160509 90 181 2.0 3.0 0.00 0.00 0.00 64 1015.1
20260902160010 89 176 3.0 3.0 0.00 0.00 0.00 65 1015.0
20260902155503 89 221 3.0 3.0 0.00 0.00 0.00 65 1015.0
20260902155001 89 139 2.0 2.0 0.00 0.00 0.00 66 1015.1
20260902154456 89 174 2.0 3.0 0.00 0.00 0.00 67 1014.9
20260902153952 88 36 3.0 5.0 0.00 0.00 0.00 68 1015.0
20260902153450 87 176 4.0 5.0 0.00 0.00 0.00 70 1014.8
20260902152946 87 5 3.0 5.0 0.00 0.00 0.00 69 1014.9
20260902152442 86 194 2.0 2.0 0.00 0.00 0.00 72 1014.8
20260902151936 86 327 4.0 5.0 0.00 0.00 0.00 73 1014.9
20260902151433 86 192 2.0 2.0 0.00 0.00 0.00 75 1014.8
20260902150926 86 101 4.0 5.0 0.00 0.00 0.00 75 1015.0
20260902150423 85 153 1.0 2.0 0.00 0.00 0.00 77 1014.8